User: anonymous   Login
Location: Demmingen
(48.6757°N, 10.4375°E)
Time: 21:22:02
(UTC+00:00)
Language:

Cosmos 1242 Rocket - Orbit

View from above orbital plane
View from above orbital plane
View from above satellite
View from above satellite

Ground track
Ground track

The orbit data is extracted from the following two-line orbital elements,

1 12155U 81008B   24197.50914077  .00180355  10449-4  64581-3 0  9998
2 12155  81.1396 195.8550 0007428  96.2936 263.9178 15.88665599357994
Epoch (UTC): 15 July 2024 12:13:09
Eccentricity: 0.0007428
inclination: 81.1396°
perigee height: 301 km
apogee height: 311 km
right ascension of ascending node: 195.8550°
argument of perigee: 96.2936°
revolutions per day: 15.88665599
mean anomaly at epoch: 263.9178°
orbit number at epoch: 35799

The dashed part of the orbit path shows where the satellite is in the earth's shadow,  

DLR